Погода в Разметелево

Россия / Санкт-Петербург и Ленинградская область     59°54′14″N   30°40′47″E
темп.,
°C
ветер,
м/с
пор.,
м/с
влажн.,
%
обл.,
%
осадки,
мм/ч
давл.,
гПа
погр.,
м
6 августа, пт
пт600:00+11ссв228584 0.0 101631
03:00+13ссв247796 0.0 101598
06:00+13св1279100 0.0 101575
09:00+17св376621 0.1 1014834
12:00+19всв695426 0.0 10151535
15:00+17всв7106583 0.1 10141220
18:00+15всв4977100 0.1 1014886
21:00+14всв4978100 0.1 1013683
7 августа, сб
сб700:00+13всв4118896 0.0 1013532
03:00+13всв51193100 0.0 1012515
06:00+14всв51189100 0.0 1011569
09:00+14всв51192100 0.2 1010652
12:00+15всв51296100 0.9 1009718
15:00+15в51298100 5.3 1008772
18:00+16в41298100 6.6 1007815
21:00+16в3999100 7.1 1007445
8 августа, вс
вс800:00+16в2799100 0.0 1007323
03:00+16юв269995 0.3 1008244
06:00+16ююв269938 0.3 1008259
09:00+16ю3686100 0.3 1009350
12:00+21ю33610 0.0 10101002
15:00+19юз567089 0.3 1012692
18:00+20юз236487 0.0 1012832
21:00+16ююв2287100 0.0 101331
9 августа, пн
пн900:00+16юв2584100 0.0 1014127
03:00+14ююв2496100 0.0 101481
06:00+15ююв269387 0.0 1014145
09:00+20ююв3770100 0.0 1013473
12:00+24ююв475528 0.0 10131247
15:00+23ююз577123 0.7 10131043
18:00+21ююз4874100 0.3 1014688
21:00+18ю38904 0.3 1015244
10 августа, вт
вт1000:00+16юз389819 0.0 1016300
03:00+15ююз2598100 0.0 1017140
06:00+14ююз269616 0.0 1017146
09:00+19юз35697 0.0 1018553
12:00+23юз345193 0.0 10181577
15:00+24юз3344100 0.0 10172005
18:00+24з2251100 0.0 1017833
21:00+18ссз227788 0.0 101756